When you browse on this site, cookies collect data to enhance your experience and personalize the content and advertising you see.
Visit our Privacy Policy to learn more. By continuing to use the site, you agree to this use of cookies and data.
  • In Hungary
  • List of Countries
  • For 7 days
  • Water Temperature
  • Weather Map
  • News
  • Weather Widgets
  • user-avatar
    Login

    Hourly Weather Jirkov

    Today, 20 August, Tuesday

    Time Temperature Precipitation Wind Pressure Humidity
    00:00 +16°C° 0 mm 0 mps 735 mmHg 87%
    01:00 +16°C° 0 mm 0 mps 735 mmHg 92%
    02:00 +16°C° 0.1 mm 0 mps 735 mmHg 92%
    03:00 +15°C° 0.1 mm 0 mps 735 mmHg 91%
    04:00 +15°C° 0.1 mm 0 mps 735 mmHg 90%
    05:00 +16°C° 0 mm 0 mps 735 mmHg 88%
    06:00 +17°C° 0 mm 0 mps 735 mmHg 86%
    07:00 +18°C° 0 mm 0 mps 735 mmHg 82%
    08:00 +19°C° 0.1 mm 0 mps 735 mmHg 76%
    09:00 +20°C° 0.1 mm 0 mps 735 mmHg 70%
    10:00 +22°C° 0.1 mm 0 mps 735 mmHg 63%
    11:00 +24°C° 0 mm 1 mps 735 mmHg 62%
    12:00 +24°C° 0 mm 1 mps 735 mmHg 61%
    13:00 +24°C° 0 mm 2 mps 735 mmHg 59%
    14:00 +23°C° 0.4 mm 2 mps 735 mmHg 66%
    15:00 +20°C° 0.4 mm 2 mps 735 mmHg 73%
    16:00 +19°C° 0.4 mm 2 mps 735 mmHg 80%
    17:00 +18°C° 1.1 mm 2 mps 735 mmHg 83%
    18:00 +18°C° 1.1 mm 3 mps 735 mmHg 85%
    19:00 +17°C° 1.1 mm 3 mps 736 mmHg 88%
    20:00 +16°C° 0.7 mm 3 mps 736 mmHg 89%
    21:00 +16°C° 0.7 mm 3 mps 736 mmHg 89%
    22:00 +16°C° 0.7 mm 3 mps 737 mmHg 90%
    23:00 +14°C° 2.2 mm 3 mps 737 mmHg 92%

    Tomorrow, 21 August, Wednesday

    Time Temperature Precipitation Wind Pressure Humidity
    00:00 +15°C° 2.2 mm 2 mps 738 mmHg 94%
    01:00 +15°C° 2.2 mm 2 mps 738 mmHg 95%
    02:00 +15°C° 0.7 mm 2 mps 738 mmHg 94%
    03:00 +15°C° 0.7 mm 1 mps 739 mmHg 93%
    04:00 +15°C° 0.7 mm 1 mps 739 mmHg 92%
    05:00 +15°C° 0 mm 1 mps 739 mmHg 89%
    06:00 +15°C° 0 mm 1 mps 740 mmHg 86%
    07:00 +16°C° 0 mm 1 mps 740 mmHg 84%
    08:00 +18°C° 0 mm 1 mps 740 mmHg 75%
    09:00 +19°C° 0 mm 1 mps 740 mmHg 67%
    10:00 +21°C° 0 mm 1 mps 741 mmHg 59%
    11:00 +21°C° 0 mm 1 mps 741 mmHg 56%
    12:00 +22°C° 0 mm 1 mps 740 mmHg 53%
    13:00 +22°C° 0 mm 1 mps 740 mmHg 50%
    14:00 +22°C° 0 mm 1 mps 740 mmHg 51%
    15:00 +22°C° 0 mm 1 mps 740 mmHg 52%
    16:00 +22°C° 0 mm 1 mps 740 mmHg 53%
    17:00 +21°C° 0 mm 1 mps 740 mmHg 58%
    18:00 +20°C° 0 mm 1 mps 740 mmHg 64%
    19:00 +18°C° 0 mm 1 mps 740 mmHg 69%
    20:00 +16°C° 0 mm 1 mps 740 mmHg 71%
    21:00 +15°C° 0 mm 1 mps 740 mmHg 73%
    22:00 +15°C° 0 mm 1 mps 740 mmHg 75%
    23:00 +14°C° 0 mm 1 mps 740 mmHg 75%

    Day after tomorrow, 22 August, Thursday

    Time Temperature Precipitation Wind Pressure Humidity
    00:00 +14°C° 0 mm 1 mps 740 mmHg 75%
    01:00 +14°C° 0 mm 1 mps 740 mmHg 75%
    02:00 +14°C° 0 mm 1 mps 740 mmHg 77%
    03:00 +13°C° 0 mm 1 mps 740 mmHg 79%
    04:00 +13°C° 0 mm 1 mps 739 mmHg 80%
    05:00 +14°C° 0 mm 1 mps 740 mmHg 79%
    06:00 +15°C° 0 mm 1 mps 740 mmHg 77%
    07:00 +16°C° 0 mm 1 mps 740 mmHg 75%
    08:00 +18°C° 0 mm 1 mps 740 mmHg 69%
    09:00 +19°C° 0 mm 2 mps 740 mmHg 62%
    10:00 +21°C° 0 mm 2 mps 740 mmHg 56%
    11:00 +21°C° 0 mm 2 mps 740 mmHg 53%
    12:00 +23°C° 0 mm 2 mps 740 mmHg 50%
    13:00 +24°C° 0 mm 2 mps 739 mmHg 46%
    14:00 +24°C° 0 mm 2 mps 739 mmHg 46%
    15:00 +24°C° 0 mm 2 mps 739 mmHg 46%
    16:00 +24°C° 0 mm 2 mps 739 mmHg 46%
    17:00 +23°C° 0 mm 1 mps 738 mmHg 54%
    18:00 +21°C° 0 mm 1 mps 738 mmHg 62%
    19:00 +19°C° 0 mm 1 mps 738 mmHg 70%
    20:00 +18°C° 0 mm 1 mps 738 mmHg 74%
    21:00 +16°C° 0 mm 1 mps 739 mmHg 77%
    22:00 +16°C° 0 mm 1 mps 739 mmHg 81%
    23:00 +15°C° 0 mm 1 mps 739 mmHg 82%

    23 August, Friday

    Time Temperature Precipitation Wind Pressure Humidity
    00:00 +15°C° 0 mm 1 mps 739 mmHg 84%
    01:00 +14°C° 0 mm 1 mps 739 mmHg 85%
    02:00 +14°C° 0 mm 1 mps 739 mmHg 85%
    03:00 +14°C° 0 mm 1 mps 739 mmHg 86%
    04:00 +13°C° 0 mm 0 mps 739 mmHg 86%
    05:00 +14°C° 0 mm 0 mps 739 mmHg 83%
    06:00 +15°C° 0 mm 0 mps 739 mmHg 80%
    07:00 +16°C° 0 mm 0 mps 739 mmHg 77%
    08:00 +19°C° 0 mm 1 mps 739 mmHg 70%
    09:00 +21°C° 0 mm 1 mps 739 mmHg 64%
    10:00 +23°C° 0 mm 1 mps 739 mmHg 58%
    11:00 +24°C° 0 mm 2 mps 739 mmHg 54%
    12:00 +25°C° 0 mm 2 mps 739 mmHg 51%
    13:00 +26°C° 0 mm 2 mps 739 mmHg 47%
    14:00 +26°C° 0 mm 2 mps 738 mmHg 48%
    15:00 +26°C° 0 mm 2 mps 738 mmHg 48%
    16:00 +26°C° 0 mm 2 mps 737 mmHg 49%
    17:00 +24°C° 0 mm 2 mps 737 mmHg 58%
    18:00 +21°C° 0 mm 2 mps 737 mmHg 66%
    19:00 +21°C° 0 mm 1 mps 737 mmHg 75%
    20:00 +20°C° 0 mm 1 mps 737 mmHg 79%
    21:00 +19°C° 0 mm 1 mps 737 mmHg 82%
    22:00 +18°C° 0 mm 1 mps 737 mmHg 86%
    23:00 +18°C° 0 mm 1 mps 737 mmHg 87%

    24 August, Saturday

    Time Temperature Precipitation Wind Pressure Humidity
    00:00 +18°C° 0 mm 1 mps 737 mmHg 89%
    01:00 +16°C° 0 mm 1 mps 736 mmHg 90%
    02:00 +16°C° 0 mm 1 mps 736 mmHg 91%
    03:00 +15°C° 0 mm 0 mps 736 mmHg 91%
    04:00 +14°C° 0 mm 0 mps 736 mmHg 92%
    05:00 +15°C° 0 mm 0 mps 736 mmHg 89%
    06:00 +16°C° 0 mm 0 mps 736 mmHg 86%
    07:00 +17°C° 0 mm 0 mps 736 mmHg 83%
    08:00 +19°C° 0 mm 0 mps 736 mmHg 76%
    09:00 +23°C° 0 mm 1 mps 736 mmHg 69%
    10:00 +24°C° 0 mm 1 mps 736 mmHg 62%
    11:00 +25°C° 0 mm 1 mps 736 mmHg 58%
    12:00 +26°C° 0 mm 1 mps 736 mmHg 54%
    13:00 +27°C° 0 mm 1 mps 736 mmHg 50%
    14:00 +27°C° 0 mm 2 mps 735 mmHg 51%
    15:00 +27°C° 0 mm 2 mps 735 mmHg 51%
    16:00 +27°C° 0 mm 2 mps 735 mmHg 52%
    17:00 +25°C° 0 mm 1 mps 734 mmHg 59%
    18:00 +24°C° 0 mm 1 mps 734 mmHg 66%
    19:00 +22°C° 0 mm 1 mps 734 mmHg 72%
    20:00 +21°C° 0 mm 1 mps 734 mmHg 76%
    21:00 +20°C° 0 mm 1 mps 734 mmHg 80%
    22:00 +20°C° 0 mm 1 mps 734 mmHg 84%
    23:00 +19°C° 0 mm 1 mps 734 mmHg 85%

    25 August, Sunday

    Time Temperature Precipitation Wind Pressure Humidity
    00:00 +19°C° 0 mm 1 mps 734 mmHg 86%
    01:00 +19°C° 0 mm 1 mps 734 mmHg 88%
    02:00 +18°C° 0 mm 1 mps 734 mmHg 88%
    03:00 +18°C° 0 mm 1 mps 734 mmHg 89%
    04:00 +18°C° 0 mm 1 mps 734 mmHg 89%
    05:00 +19°C° 0 mm 1 mps 734 mmHg 86%
    06:00 +19°C° 0 mm 1 mps 734 mmHg 83%
    07:00 +20°C° 0 mm 1 mps 734 mmHg 80%
    08:00 +22°C° 0 mm 1 mps 735 mmHg 74%
    09:00 +24°C° 0 mm 1 mps 735 mmHg 69%
    10:00 +25°C° 0 mm 2 mps 735 mmHg 63%
    11:00 +26°C° 0 mm 2 mps 735 mmHg 61%
    12:00 +27°C° 0 mm 2 mps 735 mmHg 59%
    13:00 +28°C° 0 mm 2 mps 735 mmHg 57%
    14:00 +28°C° 0.1 mm 2 mps 734 mmHg 58%
    15:00 +28°C° 0.1 mm 2 mps 734 mmHg 60%
    16:00 +28°C° 0.1 mm 3 mps 734 mmHg 62%
    17:00 +26°C° 0.2 mm 2 mps 734 mmHg 69%
    18:00 +25°C° 0.2 mm 2 mps 734 mmHg 77%
    19:00 +23°C° 0.2 mm 2 mps 734 mmHg 84%
    20:00 +21°C° 0 mm 2 mps 734 mmHg 86%
    21:00 +21°C° 0 mm 1 mps 734 mmHg 87%
    22:00 +21°C° 0 mm 1 mps 735 mmHg 89%
    23:00 +20°C° 0 mm 1 mps 735 mmHg 90%
    Show more